Regional Weather Roundup
Issued by NWS Upton, NY

Current Version | Previous Version | Graphics & Text | Print | Product List | Glossary Off
Versions: 1 2 3 4 5 6 7 8 9 10 11 12 13 14 15 16 17 18 19 20 21 22 23 24 25 26 27 28 29 30 31 32 33 34 35 36 37 38 39 40 41 42 43 44 45 46 47 48 49 50

000
ASUS41 KOKX 251105
RWROKX

REGIONAL WEATHER ROUNDUP
NATIONAL WEATHER SERVICE NEW YORK NY
600 AM EST TUE NOV 25 2014

NOTE: "FAIR" INDICATES FEW OR NO CLOUDS BELOW 12,000 FEET WITH NO
SIGNIFICANT WEATHER AND/OR OBSTRUCTIONS TO VISIBILITY.

NYZ071-072-176-178-NJZ106-104-251200-
NEW YORK CITY METRO AREA


CITY           SKY/WX    TMP DP  RH WIND       PRES   REMARKS
CENTRAL PARK   CLOUDY    63  43  48 W3        29.89R
LAGUARDIA APRT CLOUDY    63  42  46 W14       29.86R
KENNEDY INTL   CLOUDY    55  52  89 W8        29.88R
NEWARK/LIBERTY CLOUDY    62  43  50 SW9       29.87R
BRNX BOT. GARD   N/A     61  45  55 W6        29.87S
TETERBORO      NOT AVBL
$$

NYZ177-179-078>081-251200-
LONG ISLAND NEW YORK

CITY           SKY/WX    TMP DP  RH WIND       PRES   REMARKS
FARMINGDALE    NOT AVBL
ISLIP          NOT AVBL
SHIRLEY        CLOUDY    58  56  93 SW8       29.86R
WESTHAMPTON    NOT AVBL
MONTAUK POINT    N/A     59  57  93 SW10      29.86R
$$

NYZ052-065-067-251200-
HUDSON VALLEY

CITY           SKY/WX    TMP DP  RH WIND       PRES   REMARKS
WHITE PLAINS   NOT AVBL
NEWBURGH       NOT AVBL
MONTGOMERY     NOT AVBL
POUGHKEEPSIE   NOT AVBL
ALBANY         CLOUDY    48  38  68 NW10      29.82R
$$

NJZ001-105-106-008-010-013-015-019>022-104-251200-
NEW JERSEY

CITY           SKY/WX    TMP DP  RH WIND       PRES   REMARKS
NEWARK/LIBERTY CLOUDY    62  43  50 SW9       29.87R
TETERBORO      NOT AVBL
CALDWELL       CLOUDY    57  40  52 CALM      29.88R
MORRISTOWN       N/A     59  39  47 W6        29.86R
SOMERVILLE     CLOUDY    59  35  40 VRB3      29.87R
SUSSEX         NOT AVBL
ANDOVER          N/A     54  33  45 CALM      29.89R
TRENTON        CLOUDY    59  39  47 NW7       29.89R
MILLVILLE      NOT AVBL
ATLANTIC CITY  CLOUDY    62  58  86 SW6       29.91R
WRIGHTSTOWN    CLOUDY    60  48  65 NW7       29.88R
TOMS RIVER     CLOUDY    59  57  94 CALM      29.89R
BELMAR         CLOUDY    61  52  72 W7        29.87R
$$

PAZ047>061-062-071-251200-
EASTERN PENNSYLVANIA

CITY           SKY/WX    TMP DP  RH WIND       PRES   REMARKS
PHILADELPHIA   CLOUDY    56  51  84 W7        29.92R
ALLENTOWN      CLOUDY    54  34  46 W14G22    29.91R
SCRANTON       NOT AVBL
$$

CTZ002-004>006-009-010-012-RIZ004-006-007-MAZ004-011-015-251200-
SOUTHERN NEW ENGLAND
 IN CT

CITY           SKY/WX    TMP DP  RH WIND       PRES   REMARKS
BRADLEY INTL   CLOUDY    56  53  90 S10       29.80R
HARTFORD       NOT AVBL
DANBURY        CLOUDY    59  38  45 SW9       29.86R
WTRBRY/OXFORD  CLOUDY    57  52  82 SW6       29.84R
BRIDGEPORT     CLOUDY    55  54  96 W7        29.84R
MERIDEN        CLOUDY    54  52  93 S5        29.83S FOG
NEW HAVEN      CLOUDY    56  52  86 W5        29.84R
CHESTER        CLOUDY    55  55 100 W3        29.84S FOG
GROTON         MOCLDY    56  56 100 SW7       29.85R FOG
WILLIMANTIC    MOCLDY    55  54  94 CALM      29.83R FOG

 IN RI

CITY           SKY/WX    TMP DP  RH WIND       PRES   REMARKS
PROVIDENCE     MOCLDY    57  55  93 SW8       29.83R
BLOCK ISLAND   CLOUDY    55  54  94 SW17      29.85R
WESTERLY       NOT AVBL

 IN MA

CITY           SKY/WX    TMP DP  RH WIND       PRES   REMARKS
BOSTON         MOCLDY    57  55  93 SW14      29.79R
WORCESTER      NOT AVBL
WESTFIELD      CLOUDY    58  43  57 S8        29.79R
PROVINCETOWN   CLOUDY    55  54  94 SW14G20   29.82R VSB 3/4
NANTUCKET      CLOUDY    55  53  93 SW10      29.86R FOG
$$

ANZ330-335-338-340-345-350-353-355-251200-
COASTAL MARINE OBSERVATIONS


STATION/POSITION TIME  SKY/WX   TEMP    WIND        PRES    VSBY  WAVE
                                AIR SEA DIR/SP/G                  HT/PER
                 (UTC)          (F)     (DEG/KT/KT) (MB)    (MI)  (FT/S)
NY HARB ENTRANCE 1000            57 55  220/ 12/ 12 1011.3          7/10
4S FIRE IS       1100               53                N/A           9/10
20S FIRE ISLAND  1000            59 55  230/ 17/ 19 1010.5          9/10
23SW MTP         1000                                 N/A          10/10
HUDSON CANYON    1000            62 60  220/ 17/ 21 1011.4          9/11
EXECUTION ROCKS  1100            54 48  220/  8/ 10   N/A
WESTERN LI SOUND 1000            55     200/  8/ 10   N/A           0
CENTRAL LI SOUND 1000            54 50  210/ 10/ 12   N/A           1/ 3
EASTERN LI SOUND 1000            55 53  230/ 16/ 19   N/A
ROBBINS REEF     1100            62     260/ 13/ 15 1010.4
$$


>>>>>>>>>>>>>>>>>>>>>>>>>>>> KEY <<<<<<<<<<<<<<<<<<<<<<<<<<<
>                                                          <
>     SKY/WX - SKY CONDITION/PRESENT WEATHER               <
>     TMP    - TEMPERATURE IN FAHRENHEIT                   <
>     DP     - DEWPOINT IN FAHRENHEIT                      <
>     RH     - RELATIVE HUMIDITY IN PERCENT                <
>     WIND   - DIRECTION AND SPEED IN MPH                  <
>     PRES   - MEAN SEA LEVEL PRESSURE IN INCHES OF HG     <
>     WCI    - WIND CHILL INDEX                            <
>     VSB    - VISIBILITY IN MILES                         <
>     HX     - HEAT INDEX                                  <
>     TC     - TEMPERATURE IN CELSIUS                      <
>     VRB    - VARIABLE WIND DIRECTION                     <
>                                                          <
>>>>>>>>>>>>>>>>>>>>>>>>>>>> KEY <<<<<<<<<<<<<<<<<<<<<<<<<<<




USA.gov is the U.S. government's official web portal to all federal, state and local government web resources and services.